Cherry Point, NC

6:14 AM EDT on September 27, 2016 (GMT -0400)
Cherry Point Marine Corps Air Station

Weather History for KNKT - June, 2013

Change the Weather History Date:

Tuesday, June 11, 2013

  Actual Average Record
Temperature  
Mean Temperature 78 °F -  
Max Temperature 84 °F 82 °F 93 °F (2004)
Min Temperature 73 °F 65 °F 52 °F (1997)
Cooling Degree Days 14    
Growing Degree Days 28 (Base 50)    
Moisture  
Dew Point 71 °F    
Average Humidity 80    
Maximum Humidity 91    
Minimum Humidity 65    
Precipitation  
Precipitation 0.00 in - - ()
Sea Level Pressure  
Sea Level Pressure 29.95 in    
Wind  
Wind Speed 10 mph ()    
Max Wind Speed 18 mph    
Max Gust Speed 26 mph    
Visibility 9.2 miles    
Events Rain , Thunderstorm    
Averages and records for this station are not official NWS values.
T = Trace of Precipitation, MM = Missing Value Source: Averaged Metar Reports

Daily Weather History Graph

Daily Weather History Graph

Search for Another Location

Airport or City:

Trip Planner

Search our weather history database for the weather conditions in past years. The results will help you decide how hot, cold, wet, or windy it might be!

Date:

Astronomy

Jun. 11, 2013 Rise Set
Actual Time 5:53 AM EDT 8:21 PM EDT
Civil Twilight 5:23 AM EDT 8:50 PM EDT
Nautical Twilight 4:47 AM EDT 9:27 PM EDT
Astronomical Twilight 4:07 AM EDT 10:07 PM EDT
Moon 8:29 AM EDT (6/11) 10:28 PM EDT (6/11)
Length of Visible Light 15h 27m
Length of Day
14h 28m
Waxing Crescent, 8% of the Moon is Illuminated
Jun 11
Waxing Crescent
Jun 16
First Quarter
Jun 23
Full
Jun 30
Last Quarter
Jul 8
New

Hourly Weather History & Observations

Time (EDT) Temp. Heat Index Dew Point Humidity Pressure Visibility Wind Dir Wind Speed Gust Speed Precip Events Conditions
12:54 AM 75.9 °F - 73.0 °F 91% 30.00 in 10.0 mi SSW 9.2 mph 19.6 mph N/A   Overcast
1:01 AM 77.0 °F - 73.0 °F 88% 30.01 in 10.0 mi SSW 12.7 mph 19.6 mph N/A Thunderstorm Thunderstorm
1:30 AM 77.0 °F - 73.0 °F 88% 29.98 in 10.0 mi SSW 15.0 mph 20.7 mph N/A Thunderstorm Thunderstorm
1:36 AM 77.0 °F - 73.0 °F 88% 29.98 in 10.0 mi SSW 9.2 mph 20.7 mph N/A   Overcast
1:54 AM 77.0 °F - 73.0 °F 88% 29.96 in 10.0 mi SSW 10.4 mph - N/A   Overcast
2:38 AM 77.0 °F - 73.0 °F 88% 29.98 in 10.0 mi SSW 11.5 mph - N/A   Mostly Cloudy
2:52 AM 77.0 °F - 73.4 °F 89% 29.98 in 10.0 mi SW 11.5 mph 23.0 mph N/A   Mostly Cloudy
2:54 AM 77.0 °F - 73.0 °F 88% 29.97 in 10.0 mi SSW 10.4 mph 23.0 mph N/A   Mostly Cloudy
3:12 AM 75.9 °F - 72.0 °F 87% 29.97 in 10.0 mi SW 11.5 mph 21.9 mph 0.00 in Rain Light Rain
3:54 AM 73.9 °F - 69.1 °F 85% 29.96 in 10.0 mi SW 12.7 mph - 0.00 in   Clear
4:32 AM 73.9 °F - 69.1 °F 85% 29.97 in 10.0 mi SW 10.4 mph - N/A   Mostly Cloudy
4:54 AM 73.9 °F - 69.1 °F 85% 29.96 in 10.0 mi SW 10.4 mph - N/A   Mostly Cloudy
5:01 AM 73.9 °F - 69.1 °F 85% 29.96 in 10.0 mi SW 12.7 mph - N/A   Scattered Clouds
5:54 AM 73.9 °F - 69.1 °F 85% 29.97 in 10.0 mi SW 11.5 mph - N/A   Mostly Cloudy
6:25 AM 73.9 °F - 69.1 °F 85% 29.99 in 10.0 mi WSW 10.4 mph - N/A   Overcast
6:54 AM 73.9 °F - 69.1 °F 85% 29.98 in 10.0 mi WSW 12.7 mph - N/A   Mostly Cloudy
7:31 AM 73.9 °F - 69.1 °F 85% 29.99 in 10.0 mi WSW 10.4 mph - N/A   Mostly Cloudy
7:54 AM 75.0 °F - 69.1 °F 82% 29.99 in 10.0 mi WSW 11.5 mph - N/A   Mostly Cloudy
8:01 AM 75.0 °F - 69.1 °F 82% 30.00 in 10.0 mi WSW 13.8 mph 19.6 mph N/A   Mostly Cloudy
8:54 AM 75.0 °F - 69.1 °F 82% 29.99 in 10.0 mi WSW 15.0 mph - N/A   Mostly Cloudy
9:54 AM 78.1 °F - 69.1 °F 74% 29.97 in 10.0 mi WSW 10.4 mph - N/A   Mostly Cloudy
10:54 AM 80.1 °F 82.7 °F 68.0 °F 67% 29.96 in 10.0 mi SW 18.4 mph 26.5 mph N/A   Mostly Cloudy
11:54 AM 81.0 °F 84.1 °F 69.1 °F 67% 29.96 in 10.0 mi WSW 15.0 mph - N/A   Mostly Cloudy
11:59 AM 81.0 °F 84.4 °F 70.0 °F 69% 29.96 in 10.0 mi WSW 16.1 mph - N/A   Mostly Cloudy
12:34 PM 80.1 °F 82.9 °F 69.1 °F 69% 29.95 in 10.0 mi WSW 13.8 mph 19.6 mph N/A   Mostly Cloudy
12:54 PM 81.0 °F 84.1 °F 69.1 °F 67% 29.94 in 10.0 mi West 12.7 mph - N/A   Mostly Cloudy
1:40 PM 82.9 °F 87.0 °F 70.0 °F 65% 29.94 in 1.8 mi WSW 15.0 mph - N/A   Scattered Clouds
1:47 PM 82.0 °F 85.9 °F 70.0 °F 67% 29.94 in 7.0 mi WSW 13.8 mph - N/A   Scattered Clouds
1:54 PM 82.0 °F 85.5 °F 69.1 °F 65% 29.93 in 7.0 mi WSW 10.4 mph 24.2 mph N/A   Mostly Cloudy
2:54 PM 81.0 °F 84.9 °F 71.1 °F 72% 29.91 in 10.0 mi WSW 11.5 mph - 0.00 in   Mostly Cloudy
3:54 PM 82.9 °F 88.8 °F 73.0 °F 72% 29.90 in 10.0 mi SW 11.5 mph - 0.00 in   Mostly Cloudy
4:54 PM 84.0 °F 89.6 °F 72.0 °F 67% 29.89 in 10.0 mi SW 13.8 mph - N/A   Mostly Cloudy
5:04 PM 84.0 °F 90.2 °F 73.0 °F 69% 29.90 in 10.0 mi WSW 10.4 mph - N/A   Partly Cloudy
5:54 PM 82.0 °F 86.7 °F 72.0 °F 71% 29.89 in 10.0 mi SW 9.2 mph - N/A   Mostly Cloudy
6:54 PM 82.0 °F 86.7 °F 72.0 °F 71% 29.89 in 10.0 mi SW 8.1 mph - N/A   Scattered Clouds
7:54 PM 79.0 °F - 72.0 °F 79% 29.91 in 9.0 mi SSW 9.2 mph - N/A   Clear
8:54 PM 77.0 °F - 72.0 °F 84% 29.92 in 9.0 mi SW 6.9 mph - N/A   Clear
9:54 PM 75.9 °F - 72.0 °F 87% 29.94 in 5.0 mi SW 5.8 mph - N/A   Clear
10:54 PM 75.0 °F - 72.0 °F 90% 29.94 in 5.0 mi SW 6.9 mph - N/A   Clear
11:54 PM 73.9 °F - 71.1 °F 91% 29.96 in 6.0 mi SW 6.9 mph - N/A   Clear